Sidney-Richland, MT

9:22 AM MDT on April 23, 2018 (GMT -0600)
Sidney-Richland Municipal

Weather History for KSDY - March, 2014

Change the Weather History Date:

Monday, March 17, 2014

  Actual Average Record
Temperature  
Mean Temperature 40 °F 35 °F  
Max Temperature 48 °F 47 °F 70 °F (2012)
Min Temperature 33 °F 23 °F 0 °F (1989)
Degree Days  
Heating Degree Days 24 31  
Month to date heating degree days 579  
Year to date heating degree days 3240  
Cooling Degree Days 0 0  
Month to date cooling degree days 0  
Year to date cooling degree days 0  
Since 1 July cooling degree days 0  
Moisture  
Dew Point 33 °F    
Average Humidity 76    
Maximum Humidity 93    
Minimum Humidity 50    
Precipitation  
Precipitation 0.01 in 0.02 in 0.52 in (2003)
Month to date precipitation 0.31  
Year to date precipitation 1.05  
Sea Level Pressure  
Sea Level Pressure 29.52 in    
Wind  
Wind Speed 5 mph (North)    
Max Wind Speed 15 mph    
Max Gust Speed -    
Visibility 10 miles    
Events      
T = Trace of Precipitation, MM = Missing Value Source: NWS Daily Summary

Daily Weather History Graph

Daily Weather History Graph

Search for Another Location

Airport or City:

Astronomy

Mar. 17, 2014 Rise Set
Actual Time 7:05 AM MDT 7:05 PM MDT
Civil Twilight 6:34 AM MDT 7:36 PM MDT
Nautical Twilight 5:58 AM MDT 8:12 PM MDT
Astronomical Twilight 5:22 AM MDT 8:49 PM MDT
Moon 8:32 PM MDT (3/17) 7:17 AM MDT (3/17)
Length of Visible Light 13h 01m
Length of Day
11h 59m
Full, 99% of the Moon is Illuminated
Mar 17
Full
Mar 23
Last Quarter
Mar 30
New
Apr 7
First Quarter
Apr 15
Full

Hourly Weather History & Observations

Time (MDT) Temp. Windchill Dew Point Humidity Pressure Visibility Wind Dir Wind Speed Gust Speed Precip Events Conditions
12:15 AM 41.0 °F - 35.6 °F 81% 29.59 in 10.0 mi Calm Calm - N/A   Overcast
12:35 AM 39.2 °F - 33.8 °F 81% 29.57 in 10.0 mi Calm Calm - N/A   Overcast
12:55 AM 39.2 °F 37.0 °F 35.6 °F 87% 29.57 in 10.0 mi North 3.5 mph - N/A   Mostly Cloudy
1:15 AM 39.2 °F 35.9 °F 35.6 °F 87% 29.56 in 10.0 mi North 4.6 mph - N/A   Mostly Cloudy
1:35 AM 37.4 °F - 33.8 °F 87% 29.55 in 10.0 mi Calm Calm - N/A   Partly Cloudy
1:55 AM 37.4 °F - 33.8 °F 87% 29.55 in 10.0 mi Calm Calm - N/A   Mostly Cloudy
2:15 AM 35.6 °F 32.8 °F 33.8 °F 93% 29.54 in 10.0 mi NNW 3.5 mph - N/A   Mostly Cloudy
2:35 AM 35.6 °F 32.8 °F 33.8 °F 93% 29.53 in 10.0 mi West 3.5 mph - N/A   Scattered Clouds
2:55 AM 35.6 °F - 33.8 °F 93% 29.53 in 10.0 mi Calm Calm - N/A   Mostly Cloudy
3:15 AM 35.6 °F 31.7 °F 33.8 °F 93% 29.52 in 10.0 mi NNW 4.6 mph - N/A   Mostly Cloudy
3:35 AM 37.4 °F - 33.8 °F 87% 29.51 in 10.0 mi Calm Calm - N/A   Scattered Clouds
3:55 AM 37.4 °F 34.9 °F 33.8 °F 87% 29.50 in 10.0 mi NNW 3.5 mph - N/A   Clear
4:15 AM 35.6 °F 32.8 °F 33.8 °F 93% 29.49 in 10.0 mi NW 3.5 mph - N/A   Partly Cloudy
4:35 AM 35.6 °F - 32.0 °F 87% 29.48 in 10.0 mi Calm Calm - N/A   Partly Cloudy
4:55 AM 35.6 °F 30.7 °F 33.8 °F 93% 29.47 in 10.0 mi NNW 5.8 mph - N/A   Partly Cloudy
5:15 AM 35.6 °F 30.7 °F 33.8 °F 93% 29.46 in 10.0 mi North 5.8 mph - N/A   Partly Cloudy
5:35 AM 35.6 °F - 33.8 °F 93% 29.45 in 10.0 mi Calm Calm - N/A   Clear
5:55 AM 37.4 °F - 32.0 °F 81% 29.45 in 10.0 mi Calm Calm - N/A   Clear
6:15 AM 35.6 °F - 32.0 °F 87% 29.44 in 10.0 mi Calm Calm - N/A   Clear
6:35 AM 35.6 °F - 32.0 °F 87% 29.44 in 10.0 mi Calm Calm - N/A   Clear
6:55 AM 33.8 °F 30.8 °F 32.0 °F 93% 29.44 in 10.0 mi NNW 3.5 mph - N/A   Clear
7:15 AM 33.8 °F - 32.0 °F 93% 29.44 in 10.0 mi Calm Calm - N/A   Clear
7:35 AM 33.8 °F - 30.2 °F 87% 29.45 in 10.0 mi Calm Calm - N/A   Clear
7:55 AM 35.6 °F 32.8 °F 33.8 °F 93% 29.44 in 10.0 mi North 3.5 mph - N/A   Clear
8:15 AM 35.6 °F 31.7 °F 33.8 °F 93% 29.43 in 10.0 mi North 4.6 mph - N/A   Clear
8:35 AM 35.6 °F 30.7 °F 33.8 °F 93% 29.42 in 10.0 mi North 5.8 mph - N/A   Clear
9:15 AM 37.4 °F 32.1 °F 35.6 °F 93% 29.40 in 10.0 mi NNE 6.9 mph - N/A   Clear
9:35 AM 39.2 °F 33.6 °F 35.6 °F 87% 29.40 in 10.0 mi NNE 8.1 mph - N/A   Clear
9:55 AM 39.2 °F 35.0 °F 35.6 °F 87% 29.41 in 10.0 mi North 5.8 mph - N/A   Clear
10:15 AM 42.8 °F 38.0 °F 35.6 °F 76% 29.41 in 10.0 mi NNE 8.1 mph - N/A   Clear
10:35 AM 41.0 °F 34.3 °F 35.6 °F 81% 29.42 in 10.0 mi NNE 11.5 mph - N/A   Clear
10:55 AM 41.0 °F 35.2 °F 35.6 °F 81% 29.42 in 10.0 mi NNE 9.2 mph - N/A   Clear
11:15 AM 42.8 °F 37.0 °F 35.6 °F 76% 29.42 in 10.0 mi NNE 10.4 mph - N/A   Partly Cloudy
11:35 AM 42.8 °F 37.5 °F 35.6 °F 76% 29.42 in 10.0 mi NNE 9.2 mph - N/A   Clear
11:55 AM 44.6 °F 39.7 °F 35.6 °F 71% 29.43 in 10.0 mi NNE 9.2 mph - N/A   Scattered Clouds
12:15 PM 44.6 °F 40.2 °F 35.6 °F 71% 29.43 in 10.0 mi NE 8.1 mph - N/A   Overcast
12:35 PM 46.4 °F 41.1 °F 33.8 °F 62% 29.44 in 10.0 mi NNE 11.5 mph - N/A   Overcast
12:55 PM 42.8 °F 37.0 °F 35.6 °F 76% 29.44 in 10.0 mi NNE 10.4 mph - N/A   Overcast
1:15 PM 42.8 °F 37.0 °F 37.4 °F 81% 29.44 in 10.0 mi NNE 10.4 mph - 0.01 in   Overcast
1:35 PM 44.6 °F 38.8 °F 37.4 °F 76% 29.44 in 10.0 mi ENE 11.5 mph - 0.01 in   Overcast
1:55 PM 44.6 °F 38.4 °F 37.4 °F 76% 29.44 in 10.0 mi ENE 12.7 mph - 0.01 in   Overcast
2:15 PM 46.4 °F 40.7 °F 35.6 °F 66% 29.44 in 10.0 mi NE 12.7 mph - N/A   Mostly Cloudy
2:35 PM 48.2 °F - 37.4 °F 66% 29.44 in 10.0 mi NE 13.8 mph - N/A   Overcast
2:55 PM 46.4 °F 41.5 °F 35.6 °F 66% 29.45 in 10.0 mi NE 10.4 mph - N/A   Mostly Cloudy
3:15 PM 48.2 °F - 35.6 °F 62% 29.46 in 10.0 mi NNE 12.7 mph - N/A   Mostly Cloudy
3:35 PM 46.4 °F 40.1 °F 33.8 °F 62% 29.46 in 10.0 mi NNE 15.0 mph - N/A   Mostly Cloudy
3:55 PM 46.4 °F 40.7 °F 33.8 °F 62% 29.47 in 10.0 mi NNE 12.7 mph - N/A   Mostly Cloudy
4:15 PM 48.2 °F - 33.8 °F 58% 29.48 in 10.0 mi NNE 11.5 mph - N/A   Scattered Clouds
4:35 PM 46.4 °F 41.5 °F 33.8 °F 62% 29.48 in 10.0 mi NNE 10.4 mph - N/A   Partly Cloudy
4:55 PM 48.2 °F - 30.2 °F 50% 29.50 in 10.0 mi NNE 12.7 mph - N/A   Scattered Clouds
5:15 PM 48.2 °F - 30.2 °F 50% 29.51 in 10.0 mi NNE 9.2 mph - N/A   Scattered Clouds
5:35 PM 46.4 °F 42.4 °F 33.8 °F 62% 29.53 in 10.0 mi NNE 8.1 mph - N/A   Mostly Cloudy
5:55 PM 46.4 °F 41.5 °F 32.0 °F 57% 29.54 in 10.0 mi NNE 10.4 mph - N/A   Mostly Cloudy
6:15 PM 46.4 °F 41.1 °F 30.2 °F 53% 29.56 in 10.0 mi NNE 11.5 mph - N/A   Mostly Cloudy
6:35 PM 46.4 °F 41.9 °F 28.4 °F 50% 29.57 in 10.0 mi NNE 9.2 mph - N/A   Mostly Cloudy
6:55 PM 44.6 °F 39.2 °F 28.4 °F 53% 29.57 in 10.0 mi North 10.4 mph - N/A   Mostly Cloudy
7:15 PM 44.6 °F 39.2 °F 28.4 °F 53% 29.59 in 10.0 mi North 10.4 mph - N/A   Partly Cloudy
7:35 PM 42.8 °F 37.0 °F 28.4 °F 57% 29.60 in 10.0 mi North 10.4 mph - N/A   Partly Cloudy
7:55 PM 42.8 °F 36.2 °F 28.4 °F 57% 29.61 in 10.0 mi North 12.7 mph - N/A   Mostly Cloudy
8:15 PM 42.8 °F 37.0 °F 28.4 °F 57% 29.63 in 10.0 mi North 10.4 mph - N/A   Overcast
8:35 PM 41.0 °F 34.7 °F 28.4 °F 61% 29.64 in 10.0 mi North 10.4 mph - N/A   Mostly Cloudy
8:55 PM 41.0 °F 34.7 °F 28.4 °F 61% 29.65 in 10.0 mi North 10.4 mph - N/A   Partly Cloudy
9:15 PM 39.2 °F 33.6 °F 28.4 °F 65% 29.67 in 10.0 mi North 8.1 mph - N/A   Clear
9:35 PM 39.2 °F 33.0 °F 28.4 °F 65% 29.68 in 10.0 mi NNW 9.2 mph - N/A   Partly Cloudy
9:55 PM 37.4 °F 30.8 °F 28.4 °F 70% 29.69 in 10.0 mi NNW 9.2 mph - N/A   Clear
10:15 PM 37.4 °F 30.8 °F 28.4 °F 70% 29.69 in 10.0 mi NNW 9.2 mph - N/A   Clear
10:35 PM 37.4 °F 30.8 °F 28.4 °F 70% 29.70 in 10.0 mi NNW 9.2 mph - N/A   Clear
10:55 PM 35.6 °F 29.2 °F 28.4 °F 75% 29.71 in 10.0 mi WNW 8.1 mph - N/A   Clear
11:15 PM 33.8 °F 26.4 °F 28.4 °F 81% 29.72 in 10.0 mi WNW 9.2 mph - N/A   Clear
11:35 PM 33.8 °F 27.0 °F 26.6 °F 75% 29.73 in 10.0 mi WNW 8.1 mph - N/A   Clear
11:55 PM 33.8 °F 30.8 °F 26.6 °F 75% 29.73 in 10.0 mi WNW 3.5 mph - N/A   Clear